N0NB Weather Reports


Display with metric or nautical units.
time (UTC)temp
F
wind
direction
speed
MPH
gust
MPH
rain 1hr
in
rain 24hr
in
rain mn
in
humidity
%
barometer
mb
20260906182516 88 0.0 2.0 0.00 0.00 0.00 65 1014.0
20260906181516 87 0.0 1.0 0.00 0.00 0.00 66 1014.2
20260906180516 86 0.0 2.0 0.00 0.00 0.00 67 1014.3
20260906175515 86 0.0 2.0 0.00 0.00 0.00 68 1014.4
20260906174515 85 0.0 4.0 0.00 0.00 0.00 67 1014.5
20260906173515 85 338 1.0 3.0 0.00 0.00 0.00 68 1014.6
20260906172515 84 0.0 3.0 0.00 0.00 0.00 70 1014.7
20260906171515 84 270 1.0 6.0 0.00 0.00 0.00 70 1014.9
20260906170515 83 0.0 0.0 0.00 0.00 0.00 72 1015.0
20260906165515 83 338 1.0 3.0 0.00 0.00 0.00 71 1015.4
20260906164515 83 338 1.0 3.0 0.00 0.00 0.00 71 1015.5
20260906163515 83 338 1.0 4.0 0.00 0.00 0.00 70 1015.4
20260906162515 83 338 1.0 4.0 0.00 0.00 0.00 70 1015.4
20260906161515 83 338 1.0 4.0 0.00 0.00 0.00 70 1015.5
20260906160515 83 315 2.0 5.0 0.00 0.00 0.00 71 1015.4
20260906155515 83 338 2.0 5.0 0.00 0.00 0.00 68 1015.3
20260906154515 82 315 2.0 5.0 0.00 0.00 0.00 70 1015.2
20260906153515 82 0.0 3.0 0.00 0.00 0.00 73 1015.0
20260906152515 81 293 1.0 4.0 0.00 0.00 0.00 73 1015.0
20260906151515 81 293 1.0 3.0 0.00 0.00 0.00 76 1015.0
20260906150517 80 293 2.0 4.0 0.00 0.00 0.00 77 1015.0
20260906145517 80 248 3.0 5.0 0.00 0.00 0.00 78 1015.0
20260906144517 80 270 3.0 8.0 0.00 0.00 0.00 80 1015.0
20260906143517 79 180 2.0 8.0 0.00 0.00 0.00 82 1014.5
20260906142517 78 0.0 0.0 0.00 0.00 0.00 85 1014.7
20260906141517 77 0.0 0.0 0.00 0.00 0.00 86 1014.5
20260906140517 77 0.0 0.0 0.00 0.00 0.00 86 1014.5
20260906135517 76 0.0 0.0 0.00 0.00 0.00 87 1014.7
20260906134517 76 0.0 0.0 0.00 0.00 0.00 88 1014.7
20260906133517 76 0.0 0.0 0.00 0.00 0.00 89 1014.5
20260906132517 75 0.0 0.0 0.00 0.00 0.00 90 1014.8
20260906131517 74 0.0 0.0 0.00 0.00 0.00 91 1014.6
20260906130517 74 0.0 0.0 0.00 0.00 0.00 92 1014.4
20260906125517 73 0.0 0.0 0.00 0.00 0.00 93 1014.4
20260906124517 73 0.0 0.0 0.00 0.00 0.00 94 1014.3
20260906123517 71 0.0 0.0 0.00 0.00 0.00 95 1014.2
20260906122517 71 0.0 0.0 0.00 0.00 0.00 95 1014.0
20260906121517 70 0.0 0.0 0.00 0.00 0.00 94 1013.9
20260906120517 70 0.0 0.0 0.00 0.00 0.00 94 1013.7
20260906115517 70 0.0 0.0 0.00 0.00 0.00 94 1013.6
20260906114517 70 0.0 0.0 0.00 0.00 0.00 94 1013.5
20260906113517 70 0.0 0.0 0.00 0.00 0.00 93 1013.4
20260906112517 71 0.0 0.0 0.00 0.00 0.00 93 1013.4
20260906111517 71 0.0 0.0 0.00 0.00 0.00 93 1013.4
20260906110517 71 0.0 0.0 0.00 0.00 0.00 93 1013.4
20260906105517 71 0.0 0.0 0.00 0.00 0.00 94 1013.4
20260906104517 71 0.0 0.0 0.00 0.00 0.00 93 1013.4
20260906103517 71 0.0 0.0 0.00 0.00 0.00 93 1013.4
20260906102517 71 0.0 0.0 0.00 0.00 0.00 94 1013.3
20260906101517 71 0.0 0.0 0.00 0.00 0.00 95 1013.3
20260906100516 70 0.0 0.0 0.00 0.00 0.00 95 1013.3
20260906095517 70 0.0 0.0 0.00 0.00 0.00 95 1013.3
20260906094517 70 0.0 0.0 0.00 0.00 0.00 94 1013.2
20260906093516 70 0.0 0.0 0.00 0.00 0.00 93 1013.1
20260906092516 70 0.0 0.0 0.00 0.00 0.00 93 1013.1
20260906091517 70 0.0 0.0 0.00 0.00 0.00 93 1013.1
20260906090516 70 0.0 0.0 0.00 0.00 0.00 93 1013.0
20260906085517 70 0.0 0.0 0.00 0.00 0.00 92 1013.0
20260906084516 71 0.0 0.0 0.00 0.00 0.00 92 1013.0
20260906083516 71 0.0 0.0 0.00 0.00 0.00 92 1013.0
20260906082516 71 0.0 0.0 0.00 0.00 0.00 91 1012.9
20260906081517 71 0.0 0.0 0.00 0.00 0.00 91 1013.0
20260906080516 72 0.0 0.0 0.00 0.00 0.00 90 1013.1
20260906075516 72 0.0 0.0 0.00 0.00 0.00 92 1013.0
20260906074516 72 0.0 0.0 0.00 0.00 0.00 92 1012.9
20260906073516 72 0.0 0.0 0.00 0.00 0.00 92 1012.9
20260906072517 72 0.0 0.0 0.00 0.00 0.00 91 1012.9
20260906071516 72 0.0 0.0 0.00 0.00 0.00 91 1012.9
20260906070516 72 0.0 0.0 0.00 0.00 0.00 92 1013.0
20260906065516 72 0.0 0.0 0.00 0.00 0.00 93 1013.1
20260906064516 72 0.0 0.0 0.00 0.00 0.00 93 1013.0
20260906063516 71 0.0 0.0 0.00 0.00 0.00 92 1012.8
20260906062516 71 0.0 0.0 0.00 0.00 0.00 92 1012.9
20260906061516 72 0.0 0.0 0.00 0.00 0.00 92 1013.0
20260906060516 72 0.0 0.0 0.00 0.00 0.00 92 1013.0
20260906055516 72 0.0 0.0 0.00 0.00 0.00 91 1013.0
20260906054516 72 0.0 0.0 0.00 0.00 0.00 91 1013.0
20260906053516 72 0.0 0.0 0.00 0.00 0.00 91 1013.1
20260906052516 72 0.0 0.0 0.00 0.00 0.00 91 1013.1
20260906051516 72 0.0 0.0 0.00 0.00 0.00 91 1013.0
20260906050516 72 0.0 0.0 0.00 0.00 0.00 90 1012.9
20260906045515 73 0.0 0.0 0.00 0.00 0.00 90 1012.9
20260906044515 73 0.0 0.0 0.00 0.00 0.00 90 1012.9
20260906043515 73 0.0 0.0 0.00 0.00 0.00 89 1012.9
20260906042517 73 0.0 0.0 0.00 0.00 0.00 89 1012.8
20260906041517 74 0.0 0.0 0.00 0.00 0.00 88 1012.8
20260906040517 74 0.0 0.0 0.00 0.00 0.00 88 1012.7
20260906035517 74 0.0 0.0 0.00 0.00 0.00 87 1012.6
20260906034517 74 0.0 0.0 0.00 0.00 0.00 87 1012.6
20260906033517 75 0.0 0.0 0.00 0.00 0.00 87 1012.5
20260906032517 75 0.0 0.0 0.00 0.00 0.00 86 1012.4
20260906031517 75 0.0 0.0 0.00 0.00 0.00 85 1012.3
20260906030517 76 0.0 0.0 0.00 0.00 0.00 84 1012.2
20260906025517 76 0.0 0.0 0.00 0.00 0.00 84 1012.0
20260906024517 76 0.0 0.0 0.00 0.00 0.00 83 1011.9
20260906023517 77 0.0 0.0 0.00 0.00 0.00 82 1011.8
20260906022517 78 0.0 0.0 0.00 0.00 0.00 81 1011.3
20260906021517 78 0.0 0.0 0.00 0.00 0.00 80 1011.3
20260906020517 79 0.0 0.0 0.00 0.00 0.00 78 1011.2
20260906015517 80 0.0 0.0 0.00 0.00 0.00 75 1011.0
20260906014517 82 0.0 0.0 0.00 0.00 0.00 73 1010.9
20260906013517 82 0.0 0.0 0.00 0.00 0.00 71 1010.9
20260906012517 83 0.0 0.0 0.00 0.00 0.00 70 1010.6
20260906011517 84 0.0 0.0 0.00 0.00 0.00 68 1010.8
20260906010517 85 0.0 0.0 0.00 0.00 0.00 66 1010.6
20260906005517 87 0.0 0.0 0.00 0.00 0.00 64 1010.6
20260906004517 88 0.0 0.0 0.00 0.00 0.00 62 1010.8
20260906003517 89 0.0 2.0 0.00 0.00 0.00 59 1010.9
20260906002517 91 135 1.0 3.0 0.00 0.00 0.00 58 1011.0
20260906001517 92 135 1.0 3.0 0.00 0.00 0.00 56 1011.0
20260906000517 92 135 2.0 4.0 0.00 0.00 0.00 55 1011.1
20260905235517 93 135 3.0 5.0 0.00 0.00 0.00 52 1011.1
20260905234516 94 135 4.0 8.0 0.00 0.00 0.00 52 1011.1
20260905233517 94 158 4.0 8.0 0.00 0.00 0.00 51 1011.0
20260905232517 94 158 6.0 10.0 0.00 0.00 0.00 51 1011.0
20260905231517 95 158 7.0 12.0 0.00 0.00 0.00 50 1011.0
20260905230516 95 158 6.0 12.0 0.00 0.00 0.00 51 1011.0
20260905225517 96 158 6.0 11.0 0.00 0.00 0.00 48 1011.0
20260905224516 97 158 6.0 11.0 0.00 0.00 0.00 48 1011.0
20260905223516 97 180 4.0 9.0 0.00 0.00 0.00 48 1011.0
20260905222516 97 203 5.0 11.0 0.00 0.00 0.00 49 1011.0
20260905221517 97 180 6.0 9.0 0.00 0.00 0.00 46 1011.2
20260905220516 97 158 5.0 10.0 0.00 0.00 0.00 46 1011.4
20260905215516 97 180 6.0 9.0 0.00 0.00 0.00 46 1011.5
20260905214516 98 180 5.0 10.0 0.00 0.00 0.00 47 1011.5
20260905213516 98 180 6.0 11.0 0.00 0.00 0.00 47 1011.5
20260905212516 98 180 5.0 9.0 0.00 0.00 0.00 47 1011.6
20260905211516 98 180 5.0 10.0 0.00 0.00 0.00 47 1011.8
20260905210516 98 180 4.0 10.0 0.00 0.00 0.00 47 1012.1
20260905205516 98 203 5.0 9.0 0.00 0.00 0.00 45 1012.2
20260905204516 98 180 6.0 10.0 0.00 0.00 0.00 45 1012.3
20260905203516 98 203 6.0 12.0 0.00 0.00 0.00 44 1012.5
20260905202516 98 158 7.0 12.0 0.00 0.00 0.00 46 1012.6
20260905201516 97 158 7.0 12.0 0.00 0.00 0.00 47 1012.7
20260905200516 97 158 5.0 12.0 0.00 0.00 0.00 48 1012.7
20260905195516 98 180 7.0 12.0 0.00 0.00 0.00 47 1012.9
20260905194516 97 180 5.0 9.0 0.00 0.00 0.00 49 1013.0
20260905193516 97 203 8.0 17.0 0.00 0.00 0.00 48 1013.0
20260905192516 98 135 7.0 13.0 0.00 0.00 0.00 49 1013.1
20260905191516 97 180 5.0 9.0 0.00 0.00 0.00 50 1013.1
20260905190516 97 180 5.0 9.0 0.00 0.00 0.00 49 1013.1
20260905185516 97 113 6.0 11.0 0.00 0.00 0.00 48 1013.3
20260905184516 97 158 7.0 14.0 0.00 0.00 0.00 49 1013.3
20260905183516 96 180 4.0 9.0 0.00 0.00 0.00 53 1013.4